RH
23 21 18 13 9 7 6 6 5 5 5 5 5 5 4 4 3 3 3 4 4 4 4 5 6 7 6 8 9 9 9 9 8 8 8 9 9 10 11 11 12 13 13 14 15 14 15
23 18 16 13 9 7 6 5 5 5 5 5 5 4 4 4 3 3 4 5 4 6 7 7 8 10 9 9 10 10 9 8 9 9 9 11 11 12 12 13 13 13 13 15 15 16 17
30 22 18 14 10 8 7 6 5 5 5 5 5 4 4 3 3 4 5 5 6 7 7 8 9 9 9 10 10 10 10 10 9 9 10 12 12 12 12 14 13 14 16 16 17 18 19
43 33 25 16 15 11 8 7 7 6 6 7 5 4 4 4 4 5 7 7 8 9 9 9 10 9 9 11 11 10 9 11 10 9 11 12 13 14 15 15 16 17 17 18 19 21 20
44 36 30 24 17 16 16 14 13 14 13 12 9 7 5 4 4 6 8 9 9 9 8 9 11 11 11 11 11 11 12 12 12 12 13 15 15 16 17 18 18 19 19 21 20 20 19
40 36 30 24 22 18 18 19 18 16 17 16 15 7 5 5 5 8 8 9 10 10 9 9 11 11 13 14 13 11 13 13 14 14 15 15 16 18 18 18 21 21 21 20 18 16 18
36 35 32 28 26 21 18 17 16 17 11 10 9 7 6 6 6 8 9 9 10 11 11 13 14 15 13 15 13 12 12 14 15 15 16 17 18 21 21 20 20 21 20 19 18 18 22
32 32 30 30 29 27 18 18 13 8 6 5 6 6 6 6 6 8 8 11 11 12 13 13 13 14 14 14 10 12 13 13 15 17 17 19 23 24 24 23 22 22 23 24 21 19 21
23 21 22 28 30 25 15 8 7 6 5 5 7 7 7 7 7 8 10 10 12 12 12 14 14 13 14 15 12 13 13 16 18 19 21 22 26 26 26 26 24 23 26 26 25 21 26
23 18 20 25 24 15 11 7 6 5 6 7 8 7 8 9 10 11 10 10 12 11 16 16 15 15 12 16 14 15 15 16 20 23 24 25 25 25 24 26 26 26 26 25 23 28 31
23 16 17 15 11 12 13 10 6 7 8 9 10 8 9 13 11 13 12 12 14 14 28 16 17 16 15 14 17 12 14 16 18 21 22 27 23 19 20 23 24 25 22 25 25 34 40
22 15 14 13 10 10 6 7 9 8 10 12 12 14 13 11 10 12 14 15 16 23 24 19 19 17 16 17 15 11 10 10 11 15 15 19 22 19 18 20 26 24 23 23 31 38 54
20 14 11 10 8 9 7 10 10 11 15 14 16 17 16 13 12 13 14 16 23 31 20 22 22 17 19 20 16 15 14 14 15 11 16 15 16 19 19 20 23 30 31 34 37 48 56
17 11 11 9 7 6 8 9 9 10 16 18 20 18 17 15 14 14 16 17 26 24 24 24 20 17 20 20 20 16 18 19 15 17 21 18 10 18 26 30 34 42 43 50 49 56 64
13 14 13 8 6 8 9 9 9 12 19 20 19 17 17 18 16 17 16 30 28 25 24 24 20 16 18 19 21 21 20 21 19 20 20 27 15 20 32 35 33 37 51 65 85 72 76
16 16 12 6 7 9 8 9 10 12 20 18 17 18 18 17 16 15 19 28 26 24 22 20 17 18 20 21 20 23 22 20 21 21 22 27 26 20 33 42 43 42 55 85 83 88 89
16 12 7 6 8 8 9 10 11 13 19 17 18 18 18 15 15 14 29 26 24 21 18 17 16 18 21 23 22 21 21 21 25 24 24 27 24 22 33 39 48 56 66 80 88 97 96
16 10 6 7 8 8 9 11 14 17 15 17 18 19 16 15 15 22 25 23 20 20 15 14 15 17 20 23 24 22 21 25 27 29 31 29 27 33 37 48 48 51 78 93 95 96 97
13 8 7 7 8 8 10 12 17 19 21 19 17 16 14 13 22 22 21 21 20 18 16 14 16 17 18 21 24 21 20 22 28 29 33 31 35 42 36 34 43 55 73 86 93 98 97
9 8 7 8 8 9 11 14 20 21 19 18 16 18 15 15 16 19 20 21 22 16 14 15 16 18 17 22 20 16 21 23 27 28 31 31 39 65 67 69 76 84 88 90 90 96 98
8 8 8 9 9 10 12 15 20 20 20 19 18 20 16 18 19 18 19 21 21 19 16 14 15 19 19 22 20 22 24 26 28 27 31 36 44 67 72 75 82 91 93 93 95 97 98
9 8 9 9 9 11 13 16 20 19 19 18 18 17 17 21 20 19 21 22 21 19 15 12 16 19 19 19 21 22 26 28 28 29 31 39 46 64 70 82 85 95 98 98 96 93 92
9 8 9 9 9 12 15 17 19 20 20 19 18 16 15 22 21 19 22 20 18 16 17 15 16 18 23 27 29 29 29 31 31 31 33 41 48 62 68 80 89 89 96 98 97 91 75
9 9 8 9 10 13 16 18 18 20 20 19 16 15 17 25 22 23 22 21 20 17 16 18 16 18 24 31 31 31 33 36 38 40 36 42 51 64 77 81 91 97 98 97 95 81 63
10 9 8 9 11 14 18 19 20 20 20 19 16 16 18 26 25 24 23 23 20 17 17 16 17 20 24 29 27 32 32 38 40 39 37 42 53 71 86 85 94 95 96 96 95 75 60
9 8 9 10 13 19 21 22 21 21 20 18 18 17 17 21 28 26 25 23 21 19 18 16 16 19 22 24 24 33 41 36 39 34 36 42 52 65 97 94 92 97 96 96 89 70 60
8 8 9 11 17 23 24 24 23 22 21 20 18 18 19 25 30 25 24 23 21 19 18 19 15 15 17 21 27 37 39 38 44 50 49 51 58 73 94 95 95 95 97 94 76 65 59
8 9 11 14 21 25 26 25 24 22 20 19 19 19 19 27 28 24 21 19 16 16 17 19 16 17 18 26 29 39 39 43 46 52 56 67 75 82 87 89 94 92 95 90 76 65 57
9 10 12 17 22 25 26 25 24 22 21 19 20 21 20 22 29 24 22 18 16 16 16 19 20 24 24 29 36 42 45 51 52 51 52 75 86 90 94 90 91 96 98 92 78 65 56